Regional Weather Roundup
Issued by NWS

Home | Current Version | Previous Version | Text Only | Print | Product List | Glossary Off
Versions: 1 2 3 4 5 6 7 8 9 10 11 12 13 14 15 16 17 18 19 20 21 22 23 24 25 26 27 28 29 30 31 32 33 34 35 36 37 38 39 40 41 42 43 44 45 46 47 48 49 50

000
ASUS43 KMPX 272001
RWRMN
WEATHER ROUNDUP FOR MINNESOTA
NATIONAL WEATHER SERVICE TWIN CITIES/CHANHASSEN MN
300 PM CDT MON JUL 27 2015


NOTE: "FAIR" INDICATES FEW OR NO CLOUDS BELOW 12,000 FEET WITH NO
SIGNIFICANT WEATHER AND/OR OBSTRUCTIONS TO VISIBILITY. N/A MEANS
CURRENT SKY AND/OR WEATHER CONDITIONS ARE NOT AVAILABLE.

MNZ060>063-068>070-272100-
   Twin Cities Metro

CITY           SKY/WX    TMP DP  RH WIND       PRES   REMARKS
TWIN CITIES    CLOUDY    84  71  65 SE16      29.93F
ST PAUL        PTSUNNY   84  72  67 SE10      29.94S
CRYSTAL        CLOUDY    86  71  60 SE13      29.92S HX  91
BLAINE         PTSUNNY   88  72  58 SE13G18   29.93F HX  94
LAKEVILLE      CLOUDY    81  72  74 SE8       29.94F
EDEN PRAIRIE   CLOUDY    85  73  67 SE12G23   29.92S HX  91
SOUTH ST PAUL  CLOUDY    84  69  61 S10       29.94S
LAKE ELMO      CLOUDY    82  72  69 SE9G16    29.96F
$$
MNZ001>005-007-008-013>017-022>024-027-028-272100-
   Northwest Minnesota

CITY           SKY/WX    TMP DP  RH WIND       PRES   REMARKS
BEMIDJI        PTSUNNY   84  69  61 S12       29.90F
HALLOCK        SUNNY     86  70  58 SE15      29.82F HX  90
ROSEAU         MOSUNNY   86  72  62 S12       29.88F HX  92
WARROAD        MOSUNNY   86  70  58 S8        29.89F HX  90
THIEF RVR FALL MOSUNNY   82  70  65 S10       29.87F
CROOKSTON      MOSUNNY   82  72  69 S13       29.85F
FOSSTON        PTSUNNY   84  72  65 SE10      29.89F
DETROIT LAKES  MOSUNNY   82  68  61 S13       29.90S
MOORHEAD       PTSUNNY   88  72  58 SE14      29.84S HX  94
PARK RAPIDS    PTSUNNY   87  67  51 SE16      29.90F HX  90
MAHNOMEN       FAIR      84  70  62 SE9       29.87F
$$
MNZ006-009>011-018-025>026-272100-
   North Central Minnesota

CITY           SKY/WX    TMP DP  RH WIND       PRES   REMARKS
BAUDETTE       MOSUNNY   88  63  43 S10       29.90F
FLAG ISLAND    MOSUNNY   81  68  65 S6        29.89F
INTL FALLS     MOSUNNY   87  64  46 SE8       29.92S
WASKISH        MOSUNNY   84  70  61 SE7       29.91S
BIG FORK       MOSUNNY   88  64  45 S7        29.94S
LONGVILLE      SUNNY     84  66  54 SE13      29.92F
GRAND RAPIDS   MOSUNNY   84  63  48 S13G20    29.95S
CRANE LAKE     SUNNY     86  57  37 S8        29.95F
ORR            SUNNY     88  57  35 SE9       29.92S
COOK           SUNNY     88  61  40 S8        29.95S
WALKER         MOCLDY    83  70  63 SE9       29.91F
$$
MNZ012-019>021-037-272100-
   Northeast Minnesota

CITY           SKY/WX    TMP DP  RH WIND       PRES   REMARKS
DULUTH         MOSUNNY   85  61  44 SE13      29.97F
ELY            SUNNY     88  50  27 S8        29.96F
HIBBING        SUNNY     87  62  43 S8G17     29.95S
EVELETH        SUNNY     86  55  35 SE14      29.97S
DULUTH HARBOR  SUNNY     79  72  78 NE3       29.95F
TWO HARBORS    SUNNY     88  70  55 SE8       29.96S HX  92
SILVER BAY     SUNNY     84  64  51 SE3       29.97S
GRAND MARAIS     N/A     64  59  83 W7        29.97F
G MARAIS ARPRT   N/A     82  54  36 S9        30.04
$$
MNZ029>031-032-039>041-046>048-054>057-064-272100-
   West Central Minnesota

CITY           SKY/WX    TMP DP  RH WIND       PRES   REMARKS
FERGUS FALLS   MOSUNNY   86  72  62 S16       29.85S HX  92
WHEATON        MOSUNNY   82  73  74 SE15G22   29.85F
MORRIS         MOSUNNY   84  73  70 SE16G23   29.86S HX  91
ALEXANDRIA     PTSUNNY   85  72  65 SE17      29.91S HX  91
ELBOW LAKE     FAIR      85  73  66 SE18      29.86S HX  91
WADENA         MOSUNNY   84  70  61 SE13      29.90S
GLENWOOD       SUNNY     84  72  65 SE16G22   29.91S
APPLETON       MOSUNNY   84  73  70 SE17      29.86S HX  91
BENSON         MOSUNNY   84  72  65 S16       29.88S
ORTONVILLE     MOSUNNY   82  73  74 SE15      29.85F
MADISON        MOSUNNY   84  73  70 SE15      29.85F HX  91
WILLMAR        PTSUNNY   82  75  78 SE12G21   29.91S
$$
MNZ033>034-036-042>043-049>051-058-059-272100-
   Central Minnesota

CITY           SKY/WX    TMP DP  RH WIND       PRES   REMARKS
ST CLOUD       PTSUNNY   86  71  60 S14G21    29.91S HX  91
SAUK CENTRE    MOCLDY    84  73  69 SE12G20   29.91F HX  90
PAYNESVILLE    PTSUNNY   82  71  70 E13       29.92S
AITKIN         MOSUNNY   86  70  58 S10       29.93F HX  90
PINE RIVER     PTSUNNY   82  70  65 SE15G21   29.95S
BRAINERD       MOSUNNY   85  68  56 SE13G20   29.92F
STAPLES        MOSUNNY   84  68  58 SE10      29.91S
LONG PRAIRIE   FAIR      86  70  58 SE14G22   29.92F HX  90
LITTLE FALLS   MOSUNNY   86  68  54 SE12G17   29.91F
LITCHFIELD     MOSUNNY   84  77  79 SE10      29.91S HX  94
BUFFALO        PTSUNNY   85  71  62 SE10G17   29.93F
MAPLE LAKE     PTSUNNY   84  75  74 SE8       29.93S HX  92
$$
MNZ037-044-045-052-053-272100-
   East Central Minnesota

CITY           SKY/WX    TMP DP  RH WIND       PRES   REMARKS
PRINCETON      MOSUNNY   88  72  58 SE10      29.93S HX  94
MORA           MOSUNNY   82  68  61 SE7       29.96S
CAMBRIDGE      MOSUNNY   88  70  55 SE9       29.92S HX  92
RUSH CITY      MOSUNNY   84  69  60 SE12      29.95F
MOOSE LAKE     PTSUNNY   84  68  58 S3        29.94S
HINCKLEY       MOCLDY    84  70  61 SE8       29.96S
CLOQUET        MOSUNNY   84  63  48 S9G16     29.97S
MCGREGOR       MOSUNNY   84  68  58 SE15      29.95S
$$
MNZ071>073-080-081-089-090-097-098-272100-
   Southwest Minnesota

CITY           SKY/WX    TMP DP  RH WIND       PRES   REMARKS
MONTEVIDEO     MOSUNNY   88  75  66 S14       29.88F HX  97
GRANITE FALLS  PTSUNNY   82  74  74 SE14G22   29.89S
CANBY          MOSUNNY   85  74  69 SE13      29.86S HX  93
MARSHALL       MOSUNNY   84  72  65 S15G23    29.88S
REDWOOD FALLS  PTSUNNY   82  74  76 SE17G23   29.88S
OLIVIA         PTSUNNY   79  72  78 SE18      29.89S
PIPESTONE      SUNNY     84  66  54 S13       29.88F
WINDOM         PTSUNNY   82  70  65 SE18      29.90S
WORTHINGTON    MOSUNNY   81  70  69 SE13G20   29.90F
JACKSON        PTSUNNY   82  70  65 SE14G24   29.92F
TRACY          MOSUNNY   84  75  74 SE13      29.89S HX  92
SLAYTON        MOSUNNY   83  70  62 SE14      29.91S
$$
MNZ065>067-074>077-082>085-091>093-272100-
   South Central Minnesota

CITY           SKY/WX    TMP DP  RH WIND       PRES   REMARKS
MANKATO        CLOUDY    82  72  69 S16       29.92F
NEW ULM        PTSUNNY   81  75  83 SE12G17   29.89F
ST JAMES       PTSUNNY   81  75  83 SE15      29.91F
FAIRMONT       CLOUDY    81  70  69 SE18G25   29.91S
GLENCOE        PTSUNNY   84  75  73 SE14G23   29.92S HX  92
FARIBAULT      CLOUDY    81  73  78 SE12G17   29.95F
OWATONNA       CLOUDY    81  72  74 SE14      29.95S
WASECA         CLOUDY    79  72  78 SE8       29.95F
ALBERT LEA     CLOUDY    81  73  78 SE18      29.94F
$$
MNZ078>079-086>088-094>096-272100-
   Southeast Minnesota

CITY           SKY/WX    TMP DP  RH WIND       PRES   REMARKS
ROCHESTER      CLOUDY    80  72  76 S13       29.98F
RED WING       CLOUDY    84  70  61 SE12      29.94F
STANTON        CLOUDY    82  70  66 SE12G17   29.94S
DODGE CENTER   CLOUDY    82  72  69 SE14G21   29.97F
WINONA         PTSUNNY   82  68  61 SE12      29.97F
AUSTIN         CLOUDY    82  72  69 S9        29.97S
PRESTON        CLOUDY    81  69  67 S14       29.99F
$$
ABBREVIATIONS USED IN REMARKS
   TC - TEMPERATURES IN CELSIUS
  WCI - WIND CHILL INDEX
   HX - HEAT INDEX
  VSB - VISIBILITY
$$



USA.gov is the U.S. government's official web portal to all federal, state and local government web resources and services.